Flag for Germany Weather past 2 weeks in Andernach, Rhineland-Palatinate, Germany

Now
55 °F

Passing clouds.


Feels Like: 55 °F
Forecast: 56 / 91 °F
Wind: 3 mph from Northwest

Location: Buechel

Current Time: Jul 6, 2015 at 7:10:48 AM

Latest Report: Jul 6, 2015 at 6:20 AM


Visibility: N/A

Pressure: 30.21 "Hg

Humidity: 82%

Dew point: 50 °F

Location of AndernachLocation

Historic Weather in Andernach — Graph

°F

Andernach temperature yesterday

Maximum temperature yesterday: 91 °F (at 2:20 PM)
Minimum temperature yesterday: 63 °F (at 11:20 PM)
Average temperature yesterday: 77 °F

Past Weeks' High & Low Weather Summary

 TemperatureHumidityPressure
High93 °F (Jul 4, 2:20 PM)100% (Jun 21, 6:20 AM)30.30 "Hg (Jun 21, 6:20 AM)
Low43 °F (Jun 23, 2:20 AM)26% (Jul 4, 2:20 PM)29.68 "Hg (Jun 22, 9:20 PM)
Average66 °F64%30.11 "Hg
* Reported Jun 21 5:20 AM — Jul 6 5:20 AM, Andernach, Weather by CustomWeather, © 2015

Note: Actual official high and low records may vary slightly from our data, if they occured in-between our weather recording intervals... More about our weather records

Advertising

Andernach weather history for previous 24 hours

 ConditionsComfort  
Time TempWeatherWind HumidityBarometerVisibility
5:20 AM
Mon, Jul 6
55 °FCool.7 mph94%30.18 "Hg5 mi
4:20 AM55 °FCool.5 mph100%30.18 "Hg4 mi
3:20 AM57 °FCool.5 mph94%30.18 "Hg5 mi
2:20 AM57 °FCool.5 mph94%30.15 "Hg5 mi
1:20 AM59 °FCool.6 mph88%30.15 "Hg5 mi
12:20 AM61 °FCool.7 mph88%30.12 "Hg5 mi
11:20 PM
Sun, Jul 5
63 °FMild.8 mph88%30.09 "Hg5 mi
10:20 PM64 °FMild.5 mph88%30.07 "Hg5 mi
9:20 PM66 °FMild.7 mph83%30.04 "Hg4 mi
8:20 PM70 °FMild.12 mph73%30.01 "Hg5 mi
7:20 PM77 °FWarm.16 mph61%29.98 "HgN/A
6:20 PM90 °FHot.13 mph31%29.95 "Hg4 mi
5:20 PM91 °FHot.14 mph30%29.95 "HgN/A
4:20 PM91 °FHot.13 mph34%29.95 "HgN/A
3:20 PM90 °FHot.12 mph36%29.98 "HgN/A
2:20 PM91 °FHot.14 mph36%30.01 "HgN/A
1:20 PM90 °FHot.9 mph36%30.01 "HgN/A
12:20 PM86 °FWarm.7 mph46%30.04 "HgN/A
11:20 AM82 °FWarm.8 mph51%30.07 "Hg6 mi
10:20 AM79 °FWarm.7 mph54%30.07 "Hg5 mi
9:20 AM73 °FMild.7 mph61%30.09 "Hg5 mi
8:20 AM72 °FMild.7 mph65%30.09 "Hg6 mi
7:20 AM70 °FMild.5 mph64%30.09 "Hg5 mi
Weather by CustomWeather, © 2015

See weather overviewHow to use our weather pages